Regional Weather Roundup
Issued by NWS

Home | Current Version | Previous Version | Text Only | Print | Product List | Glossary Off
Versions: 1 2 3 4 5 6 7 8 9 10 11 12 13 14 15 16 17 18 19 20 21 22 23 24

000
ASUS45 KCYS 222110
RWRWY

WYOMING REGIONAL WEATHER ROUNDUP
NATIONAL WEATHER SERVICE CHEYENNE WY
300 PM MDT WED OCT 22 2014

NOTE:  "FAIR" INDICATES FEW OR NO CLOUDS BELOW 12,000 FEET
WITH NO SIGNIFICANT WEATHER AND/OR OBSTRUCTIONS TO VISIBILITY.

WYZ001-222200-
YELLOWSTONE NATIONAL PARK

CITY           SKY/WX    TMP DP  RH WIND       PRES   REMARKS
LK YELLOWSTONE   N/A     41  23  48 W8        30.21S
W YELLOWSTONE  NOT AVBL

$$
WYZ002>013-054>058-071-098>099-222200-
NORTHERN WYOMING

CITY           SKY/WX    TMP DP  RH WIND       PRES   REMARKS
JACKSON        SUNNY     52  21  30 CALM      30.16
CODY           SUNNY     57  23  26 W14G28    30.02F
GREYBULL       SUNNY     61  23  23 SE10      30.01F
WORLAND        SUNNY     60  22  23 VRB5      30.02F
SHERIDAN       SUNNY     64  25  22 CALM      29.97F
BUFFALO        SUNNY     58  23  26 VRB6      30.01F
GILLETTE       SUNNY     60  25  26 W10       30.00F
HULETT         FAIR      59  27  29 W10       30.02
NEWCASTLE      FAIR      59  25  27 W8        30.04

$$
WYZ014>020-022>026-101>103-222200-
CENTRAL WYOMING

CITY           SKY/WX    TMP DP  RH WIND       PRES   REMARKS
BIG PINEY      SUNNY     49  16  26 CALM      30.20S
PINEDALE       CLEAR     46  19  34 CALM      30.20F
DUBOIS         FAIR      52  12  20 NW16      30.11S
LANDER         SUNNY     58  21  24 CALM      30.06F
RIVERTON       SUNNY     56  19  23 SW6       30.07F
CASPER         SUNNY     61  15  16 W17G24    30.05F
DOUGLAS        SUNNY     61  18  18 W13       30.05F

$$
WYZ021-027>030-104>119-222200-
SOUTHERN WYOMING

CITY           SKY/WX    TMP DP  RH WIND       PRES   REMARKS
EVANSTON       MOSUNNY   55  17  22 SW16G23   30.21F
KEMMERER       CLEAR     50  19  29 W13G18    30.22F
FORT BRIDGER   FAIR      56  20  25 W16G22    30.24S
ROCK SPRINGS   SUNNY     52  20  28 W15G24    30.19F
DIXON          FAIR      55  37  50 W9        30.22F
RAWLINS        SUNNY     53  21  28 W20G28    30.16F
SARATOGA       FAIR      54  27  35 W15G24    30.19S
LARAMIE        SUNNY     56  27  32 W22G29    30.13F
CHEYENNE       MOSUNNY   63  29  27 W14G29    30.08F
TORRINGTON     MOSUNNY   65  25  22 N7        30.02F
PINE BLUFFS    FAIR      59  36  41 E8        30.07F

$$



USA.gov is the U.S. government's official web portal to all federal, state and local government web resources and services.